Location: Arrodets-la-Barthe
(43.0306°N, 0.2829°E)
Time: 12:12:31
(UTC+00:00)

Feng Yun 1-1 Rocket - Pass Details

Date: 31 May 2022
Orbit: 830 x 933 km, 99.2° (Epoch: 02 July)

Event Time Altitude Azimuth Distance (km) Brightness Sun altitude
Rises 19:58:18 0° 196° (SSW) 3,404 7.1 -5.0°
Reaches altitude 10° 20:01:03 10° 209° (SSW) 2,459 6.5 -5.4°
Maximum altitude 20:05:33 26° 265° (W) 1,586 6.3 -6.1°
Drops below altitude 10° 20:10:02 10° 321° (NW) 2,446 8.2 -6.7°
Sets 20:12:47 0° 334° (NNW) 3,382 8.7 -7.1°
